• In Hungary
  • List of Countries
  • For 7 days
  • Water Temperature
  • Satellite Maps
  • Weather Map
  • News
  • Weather Widgets
  • user-avatar
    Login

    Hourly Weather Miedzymostki

    Today, 20 January, Saturday

    Time Temperature Precipitation Wind Pressure Humidity
    00:00 -2°C° 0 mm 1 mps 709 mmHg 86%
    01:00 -2°C° 0 mm 1 mps 710 mmHg 86%
    02:00 -2°C° 0 mm 1 mps 709 mmHg 86%
    03:00 -2°C° 0 mm 1 mps 709 mmHg 86%
    04:00 -3°C° 0 mm 1 mps 709 mmHg 86%
    05:00 -3°C° 0 mm 1 mps 709 mmHg 87%
    06:00 -3°C° 0 mm 1 mps 709 mmHg 87%
    07:00 -3°C° 0 mm 1 mps 709 mmHg 87%
    08:00 -2°C° 0 mm 1 mps 710 mmHg 83%
    09:00 -1°C° 0 mm 1 mps 710 mmHg 78%
    10:00 0°C° 0 mm 1 mps 710 mmHg 74%
    11:00 0°C° 0 mm 1 mps 710 mmHg 72%
    12:00 +1°C° 0 mm 1 mps 709 mmHg 70%
    13:00 +1°C° 0 mm 1 mps 709 mmHg 68%
    14:00 +1°C° 0 mm 1 mps 709 mmHg 73%
    15:00 0°C° 0 mm 1 mps 708 mmHg 78%
    16:00 -1°C° 0 mm 1 mps 708 mmHg 83%
    17:00 -1°C° 0 mm 1 mps 708 mmHg 85%
    18:00 -3°C° 0 mm 2 mps 708 mmHg 88%
    19:00 -4°C° 0 mm 2 mps 708 mmHg 90%
    20:00 -3°C° 0.2 mm 2 mps 707 mmHg 91%
    21:00 -3°C° 0.2 mm 2 mps 707 mmHg 91%
    22:00 -3°C° 0.2 mm 2 mps 707 mmHg 92%
    23:00 -3°C° 0.1 mm 2 mps 707 mmHg 92%

    Tomorrow, 21 January, Sunday

    Time Temperature Precipitation Wind Pressure Humidity
    00:00 -3°C° 0.1 mm 2 mps 707 mmHg 92%
    01:00 -4°C° 0.1 mm 2 mps 707 mmHg 92%
    02:00 -4°C° 0.1 mm 2 mps 707 mmHg 92%
    03:00 -4°C° 0.1 mm 2 mps 706 mmHg 92%
    04:00 -4°C° 0.1 mm 2 mps 706 mmHg 93%
    05:00 -4°C° 0 mm 2 mps 706 mmHg 92%
    06:00 -4°C° 0 mm 2 mps 706 mmHg 92%
    07:00 -4°C° 0 mm 2 mps 706 mmHg 92%
    08:00 -4°C° 0 mm 3 mps 706 mmHg 88%
    09:00 -4°C° 0 mm 3 mps 706 mmHg 85%
    10:00 -2°C° 0 mm 3 mps 706 mmHg 82%
    11:00 -2°C° 0.2 mm 3 mps 706 mmHg 82%
    12:00 -2°C° 0.2 mm 3 mps 706 mmHg 83%
    13:00 -2°C° 0.2 mm 3 mps 706 mmHg 83%
    14:00 -2°C° 0.6 mm 2 mps 706 mmHg 87%
    15:00 -2°C° 0.6 mm 2 mps 706 mmHg 90%
    16:00 -1°C° 0.6 mm 1 mps 706 mmHg 94%
    17:00 -1°C° 0.5 mm 1 mps 706 mmHg 95%
    18:00 -1°C° 0.5 mm 1 mps 706 mmHg 95%
    19:00 -1°C° 0.5 mm 1 mps 707 mmHg 96%
    20:00 -3°C° 0.4 mm 2 mps 707 mmHg 95%
    21:00 -3°C° 0.4 mm 2 mps 708 mmHg 94%
    22:00 -4°C° 0.4 mm 3 mps 708 mmHg 94%
    23:00 -4°C° 0.4 mm 3 mps 709 mmHg 93%

    Day after tomorrow, 22 January, Monday

    Time Temperature Precipitation Wind Pressure Humidity
    00:00 -4°C° 0.4 mm 4 mps 709 mmHg 92%
    01:00 -5°C° 0.4 mm 4 mps 709 mmHg 92%
    02:00 -5°C° 0.3 mm 4 mps 710 mmHg 91%
    03:00 -5°C° 0.3 mm 4 mps 710 mmHg 91%
    04:00 -5°C° 0.3 mm 4 mps 710 mmHg 91%
    05:00 -7°C° 0.2 mm 4 mps 711 mmHg 91%
    06:00 -7°C° 0.2 mm 4 mps 711 mmHg 91%
    07:00 -7°C° 0.2 mm 4 mps 712 mmHg 91%
    08:00 -6°C° 0.1 mm 3 mps 712 mmHg 89%
    09:00 -6°C° 0.1 mm 3 mps 713 mmHg 88%
    10:00 -6°C° 0.1 mm 3 mps 713 mmHg 86%
    11:00 -5°C° 0 mm 3 mps 713 mmHg 85%
    12:00 -5°C° 0 mm 3 mps 714 mmHg 84%
    13:00 -4°C° 0 mm 2 mps 714 mmHg 83%
    14:00 -4°C° 0 mm 2 mps 714 mmHg 85%
    15:00 -5°C° 0 mm 2 mps 714 mmHg 87%
    16:00 -3°C° 0 mm 1 mps 714 mmHg 89%
    17:00 -4°C° 0 mm 1 mps 714 mmHg 91%
    18:00 -4°C° 0 mm 1 mps 715 mmHg 92%
    19:00 -6°C° 0 mm 1 mps 715 mmHg 94%
    20:00 -6°C° 0 mm 1 mps 715 mmHg 94%
    21:00 -6°C° 0 mm 1 mps 715 mmHg 93%
    22:00 -6°C° 0 mm 1 mps 715 mmHg 93%
    23:00 -6°C° 0 mm 1 mps 715 mmHg 93%

    23 January, Tuesday

    Time Temperature Precipitation Wind Pressure Humidity
    00:00 -6°C° 0 mm 1 mps 715 mmHg 93%
    01:00 -6°C° 0 mm 1 mps 716 mmHg 92%
    02:00 -6°C° 0 mm 1 mps 716 mmHg 92%
    03:00 -6°C° 0 mm 1 mps 716 mmHg 91%
    04:00 -6°C° 0 mm 1 mps 716 mmHg 91%
    05:00 -7°C° 0 mm 1 mps 717 mmHg 91%
    06:00 -7°C° 0 mm 1 mps 718 mmHg 91%
    07:00 -7°C° 0 mm 1 mps 718 mmHg 91%
    08:00 -6°C° 0 mm 1 mps 719 mmHg 87%
    09:00 -4°C° 0 mm 1 mps 720 mmHg 84%
    10:00 -2°C° 0 mm 1 mps 721 mmHg 81%
    11:00 -1°C° 0 mm 1 mps 721 mmHg 78%
    12:00 0°C° 0 mm 1 mps 721 mmHg 75%
    13:00 0°C° 0 mm 0 mps 722 mmHg 73%
    14:00 -2°C° 0 mm 0 mps 722 mmHg 77%
    15:00 -3°C° 0 mm 0 mps 722 mmHg 81%
    16:00 -4°C° 0 mm 0 mps 722 mmHg 85%
    17:00 -4°C° 0 mm 0 mps 722 mmHg 86%
    18:00 -4°C° 0 mm 1 mps 723 mmHg 86%
    19:00 -4°C° 0 mm 1 mps 723 mmHg 87%
    20:00 -4°C° 0 mm 1 mps 723 mmHg 86%
    21:00 -4°C° 0 mm 1 mps 723 mmHg 86%
    22:00 -4°C° 0 mm 1 mps 723 mmHg 85%
    23:00 -6°C° 0 mm 1 mps 723 mmHg 85%

    24 January, Wednesday

    Time Temperature Precipitation Wind Pressure Humidity
    00:00 -6°C° 0 mm 1 mps 724 mmHg 85%
    01:00 -6°C° 0 mm 1 mps 724 mmHg 85%
    02:00 -7°C° 0 mm 2 mps 724 mmHg 85%
    03:00 -6°C° 0 mm 2 mps 724 mmHg 86%
    04:00 -6°C° 0 mm 2 mps 724 mmHg 86%
    05:00 -6°C° 0 mm 2 mps 724 mmHg 87%
    06:00 -6°C° 0 mm 2 mps 724 mmHg 87%
    07:00 -6°C° 0 mm 2 mps 724 mmHg 88%
    08:00 -5°C° 0 mm 2 mps 725 mmHg 87%
    09:00 -4°C° 0 mm 2 mps 725 mmHg 85%
    10:00 -4°C° 0 mm 3 mps 725 mmHg 84%
    11:00 -2°C° 0 mm 3 mps 725 mmHg 84%
    12:00 -1°C° 0 mm 3 mps 725 mmHg 84%
    13:00 -1°C° 0 mm 3 mps 725 mmHg 85%
    14:00 -1°C° 0 mm 3 mps 725 mmHg 86%
    15:00 -2°C° 0 mm 3 mps 725 mmHg 88%
    16:00 -2°C° 0 mm 3 mps 725 mmHg 90%
    17:00 -4°C° 0 mm 3 mps 725 mmHg 91%
    18:00 -4°C° 0 mm 3 mps 725 mmHg 91%
    19:00 -5°C° 0 mm 3 mps 724 mmHg 92%
    20:00 -5°C° 0 mm 3 mps 724 mmHg 92%
    21:00 -5°C° 0 mm 3 mps 724 mmHg 92%
    22:00 -4°C° 0 mm 3 mps 724 mmHg 91%
    23:00 -4°C° 0 mm 3 mps 724 mmHg 91%

    25 January, Thursday

    Time Temperature Precipitation Wind Pressure Humidity
    00:00 -4°C° 0 mm 3 mps 724 mmHg 91%
    01:00 -4°C° 0 mm 3 mps 724 mmHg 91%
    02:00 -4°C° 0 mm 3 mps 724 mmHg 91%
    03:00 -5°C° 0 mm 3 mps 723 mmHg 91%
    04:00 -5°C° 0 mm 3 mps 723 mmHg 91%
    05:00 -5°C° 0 mm 3 mps 723 mmHg 90%
    06:00 -5°C° 0 mm 3 mps 723 mmHg 90%
    07:00 -5°C° 0 mm 3 mps 723 mmHg 89%
    08:00 -4°C° 0 mm 3 mps 723 mmHg 87%
    09:00 -2°C° 0 mm 3 mps 723 mmHg 85%
    10:00 -3°C° 0 mm 4 mps 723 mmHg 83%
    11:00 -2°C° 0 mm 4 mps 722 mmHg 82%
    12:00 0°C° 0 mm 3 mps 722 mmHg 82%
    13:00 0°C° 0 mm 3 mps 722 mmHg 81%
    14:00 0°C° 0 mm 3 mps 721 mmHg 82%
    15:00 -1°C° 0 mm 3 mps 721 mmHg 83%
    16:00 -1°C° 0 mm 3 mps 721 mmHg 85%
    17:00 -2°C° 0 mm 3 mps 721 mmHg 85%
    18:00 -4°C° 0 mm 3 mps 720 mmHg 85%
    19:00 -4°C° 0 mm 3 mps 720 mmHg 85%
    20:00 -4°C° 0 mm 3 mps 720 mmHg 84%
    21:00 -4°C° 0 mm 3 mps 720 mmHg 84%
    22:00 -5°C° 0 mm 3 mps 720 mmHg 83%
    23:00 -5°C° 0 mm 3 mps 720 mmHg 83%
    Show more